Weather in Kostino

Russia / Krasnoyarsk Krai     65°19′19″N   87°58′42″E
temp.,
°C
wind,
m/s
gust,
m/s
humid.,
%
clouds,
%
prec.,
mm/h
press.,
hPa
HPBL,
m
17 may, mon
mon1701:00−5nne23825 0.0 102085
04:00−5nne23845 0.0 101975
07:00−3nne23685 0.0 1020517
10:00−2n226920 0.0 1019878
13:00−1nne336197 0.0 10191192
16:00+1ne3355100 0.1 10191359
19:00+1ne235593 0.1 10181155
22:00−3ne227829 0.0 101820
18 may, tue
tue1801:00−5ne22835 0.0 101826
04:00−5ene22815 0.0 101840
07:00−2ne23665 0.0 1018307
10:000nne345547 0.0 10171226
13:00+2n4546100 0.0 10171768
16:00+2n5646100 0.1 10171695
19:00+1n6759100 0.2 10181241
22:00−1n596557 0.1 1018598
19 may, wed
wed1901:00−3n58765 0.1 1018452
04:00−5n478660 0.0 1018389
07:00−3n457462 0.0 1018504
10:000n4554100 0.0 10181476
13:00+2ne5546100 0.1 10171617
16:00+2ne5654100 0.1 10181441
19:00+3ne565599 0.2 10191408
22:000nne36695 0.0 1020178
20 may, thu
thu2001:00−2nne35805 0.0 1020116
04:00−2nne24825 0.0 102080
07:00+1nne34675 0.0 1020365
10:00+3nne23535 0.0 10201032
13:00+6nne224796 0.0 10191464
16:00+7ne224498 0.0 10181590
19:00+7e224781 0.0 10181408
22:00+4ese3663100 0.0 1019213
21 may, fri
fri2101:00+2ese2470100 0.0 101978
04:00+1se227399 0.0 101820
07:00+3se236317 0.0 1019219
10:00+7sse33496 0.0 10181076
13:00+9sse4541100 0.0 10161667
16:00+11ssw453511 0.0 10152010
19:00+12s353494 0.0 10152003
22:00+9sse224693 0.0 101520